Location: Erdweis
(48.5167°N, 15.3500°E)
Time: 11:43:08
(UTC+00:00)

Sich 1 Rocket - Pass Details

Date: 18 September 2020
Orbit: 616 x 652 km, 82.5° (Epoch: 24 October)

Event Time Altitude Azimuth Distance (km) Brightness Sun altitude
Rises 17:43:04 0° 167° (SSE) 2,915 6.8 -7.2°
Reaches altitude 10° 17:45:23 10° 160° (SSE) 2,018 5.9 -7.6°
Maximum altitude 17:49:33 39° 92° (E) 961 4.1 -8.3°
Drops below altitude 10° 17:53:47 10° 23° (NNE) 2,054 6.1 -9.0°
Sets 17:56:10 0° 16° (NNE) 2,974 7.0 -9.3°
